Location: Unspecified
(0.0000°N, 0.0000°E)
Time: 01:45:38
(UTC+00:00)

DSAT - Pass Details

Date: 18 June 2023
Orbit: 498 x 655 km, 97.5° (Epoch: 28 September)

Event Time Altitude Azimuth Distance (km) Brightness Sun altitude
Rises 03:56:56 0° 45° (NE) 2,931 ? -28.2°
Reaches altitude 10° 04:00:17 10° 73° (ENE) 1,995 ? -27.5°
Maximum altitude 04:02:19 13° 101° (E) 1,777 ? -27.0°
Drops below altitude 10° 04:04:18 10° 129° (SE) 1,956 ? -26.6°
Enters shadow 04:07:09 - 154° (SSE) 2,703 ? -26.0°
